This is the latest recevied weather packets stored in our database for station/object W5CRT. If no packets are shown the sender has not sent any weather packets the latest 10 day(s).
| Time | Temp. | Humidity | Pressure | Rain* | Wind** | Luminosity | Snow |
|---|---|---|---|---|---|---|---|
| 1777858617 | 22.22° C | 43% | 1013.8 hPa | 0 mm | - | 0 W/m² | - |
| 1777858314 | 22.78° C | 42% | 1013.6 hPa | 0 mm | - | 0 W/m² | - |
| 1777858011 | 22.78° C | 41% | 1013.8 hPa | 0 mm | - | 0 W/m² | - |
| 1777857709 | 22.78° C | 41% | 1013.8 hPa | 0 mm | - | 1 W/m² | - |
| 1777857405 | 23.33° C | 40% | 1013.6 hPa | 0 mm | - | 2 W/m² | - |
| 1777857102 | 23.33° C | 39% | 1013.5 hPa | 0 mm | - | 3 W/m² | - |
| 1777856798 | 23.33° C | 39% | 1013.5 hPa | 0 mm | - | 5 W/m² | - |
| 1777856494 | 23.89° C | 38% | 1013.6 hPa | 0 mm | - | 7 W/m² | - |
| 1777856191 | 23.89° C | 38% | 1013.6 hPa | 0 mm | - | 10 W/m² | - |
| 1777855888 | 24.44° C | 37% | 1013.6 hPa | 0 mm | - | 13 W/m² | - |
| 1777855586 | 24.44° C | 36% | 1013.6 hPa | 0 mm | - | 19 W/m² | - |
| 1777855283 | 24.44° C | 36% | 1013.7 hPa | 0 mm | - | 24 W/m² | - |
| 1777854979 | 25° C | 37% | 1013.4 hPa | 0 mm | - | 29 W/m² | - |
| 1777854675 | 25.56° C | 35% | 1013.5 hPa | 0 mm | - | 46 W/m² | - |
| 1777854372 | 25.56° C | 36% | 1013.6 hPa | 0 mm | - | 57 W/m² | - |
| 1777854070 | 25.56° C | 36% | 1013.6 hPa | 0 mm | - | 70 W/m² | - |
| 1777853768 | 26.11° C | 36% | 1013.7 hPa | 0 mm | - | 83 W/m² | - |
| 1777853463 | 26.11° C | 36% | 1013.9 hPa | 0 mm | - | 95 W/m² | - |
| 1777853161 | 26.11° C | 36% | 1013.8 hPa | 0 mm | - | 100 W/m² | - |
| 1777852858 | 26.11° C | 35% | 1013.7 hPa | 0 mm | - | 100 W/m² | - |
| 1777852556 | 26.11° C | 36% | 1013.8 hPa | 0 mm | - | 131 W/m² | - |
| 1777852253 | 25.56° C | 36% | 1013.8 hPa | 0 mm | - | 77 W/m² | - |
| 1777851950 | 26.67° C | 36% | 1014.2 hPa | 0 mm | - | 82 W/m² | - |
| 1777851649 | 27.22° C | 35% | 1013.9 hPa | 0 mm | - | 182 W/m² | - |
| 1777851345 | 26.67° C | 36% | 1014 hPa | 0 mm | - | 194 W/m² | - |
* Rain latest hour (hover to see other rain measurements)
** Current wind speed in m/s (hover to see current wind gust speed)